Gillam, Manitoba

9:11 AM CDT on October 23, 2017 (GMT -0500)
Gillam

Weather History for CYGX - December, 2012

Change the Weather History Date:

Saturday, December 1, 2012

  Actual Average Record
Temperature  
Mean Temperature -5 °F -  
Max Temperature 3 °F 3 °F 35 °F (1999)
Min Temperature -13 °F -8 °F -25 °F (2007)
Degree Days  
Heating Degree Days 70    
Moisture  
Dew Point -6 °F    
Average Humidity 75    
Maximum Humidity 78    
Minimum Humidity 61    
Precipitation  
Precipitation 0.08 in 0.03 in - ()
Sea Level Pressure  
Sea Level Pressure 30.02 in    
Wind  
Wind Speed 9 mph ()    
Max Wind Speed 16 mph    
Max Gust Speed -    
Visibility 11.4 miles    
Events Snow    
Averages and records for this station are not official NWS values.
T = Trace of Precipitation, MM = Missing Value Source: Averaged Metar Reports

Daily Weather History Graph

Daily Weather History Graph

Search for Another Location

Airport or City:

Trip Planner

Search our weather history database for the weather conditions in past years. The results will help you decide how hot, cold, wet, or windy it might be!

Date:

Astronomy

Dec. 01, 2012 Rise Set
Actual Time 8:28 AM CST 3:47 PM CST
Civil Twilight 7:42 AM CST 4:33 PM CST
Nautical Twilight 6:54 AM CST 5:21 PM CST
Astronomical Twilight 6:08 AM CST 6:07 PM CST
Moon 6:48 PM CST (12/1) 10:33 AM CST (12/1)
Length of Visible Light 8h 50m
Length of Day
7h 18m
Waning Gibbous, 91% of the Moon is Illuminated
Dec 1
Waning Gibbous
Dec 6
Last Quarter
Dec 13
New
Dec 19
First Quarter
Dec 28
Full

Hourly Weather History & Observations

Time (CST) Temp. Windchill Dew Point Humidity Pressure Visibility Wind Dir Wind Speed Gust Speed Precip Events Conditions
12:00 AM -6 °F - -12 °F 61% 30.10 in 15 mi ENE 9.2 mph - - Snow Light Snow
12:00 AM -5.8 °F -22.4 °F -13.0 °F 71% 30.10 in 10.0 mi East 9.2 mph - N/A Snow Light Snow
1:00 AM -5.8 °F -24.4 °F -11.2 °F 77% 30.08 in 10.0 mi ENE 11.5 mph - N/A Snow Light Snow
2:00 AM -4.0 °F -16.3 °F -11.2 °F 71% 30.06 in 10.0 mi ENE 5.8 mph - N/A Snow Light Snow
3:00 AM -4.0 °F -19.0 °F -11.2 °F 71% 30.03 in 10.0 mi ENE 8.1 mph - N/A Snow Light Snow
4:00 AM -4.0 °F -16.3 °F -9.4 °F 78% 30.01 in 10.0 mi ENE 5.8 mph - N/A Snow Light Snow
5:00 AM -2.2 °F -18.0 °F -9.4 °F 71% 29.98 in 10.0 mi NE 9.2 mph - N/A Snow Light Snow
6:00 AM -2.2 °F -16.8 °F -7.6 °F 78% 29.97 in 10.0 mi East 8.1 mph - N/A Snow Light Snow
7:00 AM -2.2 °F -19.9 °F -7.6 °F 78% 29.98 in 10.0 mi NNE 11.5 mph - N/A Snow Light Snow
8:00 AM -0.4 °F -17.6 °F -5.8 °F 78% 29.97 in 10.0 mi NNE 11.5 mph - N/A Snow Light Snow
9:00 AM -0.4 °F -17.6 °F -5.8 °F 78% 29.97 in 5.0 mi NNE 11.5 mph - N/A Snow Light Snow
12:00 PM 3 °F - -3 °F 67% 29.96 in 10 mi NNE 13.8 mph - - Snow Light Snow
12:00 PM 3.2 °F -15.9 °F -2.2 °F 78% 29.96 in 10.0 mi NNE 16.1 mph - N/A Snow Light Snow
1:00 PM 3.2 °F -14.6 °F -2.2 °F 78% 29.97 in 10.0 mi NNE 13.8 mph - N/A Snow Light Snow
2:00 PM 3.2 °F -15.9 °F -2.2 °F 78% 29.98 in 10.0 mi North 16.1 mph - N/A Snow Light Snow
3:00 PM 3.2 °F -15.3 °F -2.2 °F 78% 30.00 in 10.0 mi North 15.0 mph - N/A Snow Light Snow
4:00 PM 3.2 °F -15.3 °F -2.2 °F 78% 30.02 in 10.0 mi North 15.0 mph - N/A Snow Light Snow
5:00 PM 3.2 °F -11.3 °F -2.2 °F 78% 30.03 in 10.0 mi North 9.2 mph - N/A Snow Light Snow
6:00 PM 2 °F - -4 °F 67% 30.04 in 15 mi North 9.2 mph - - Snow Light Snow
6:00 PM 1.4 °F -13.5 °F -4.0 °F 78% 30.04 in 15.0 mi North 9.2 mph - N/A Snow Light Snow
7:00 PM 1.4 °F -13.5 °F -4.0 °F 78% 30.06 in 15.0 mi North 9.2 mph - N/A Snow Light Snow
8:00 PM -0.4 °F -16.7 °F -5.8 °F 78% 30.05 in 15.0 mi North 10.4 mph - N/A Snow Light Snow
9:00 PM -0.4 °F -14.7 °F -5.8 °F 78% 30.08 in 15.0 mi NNE 8.1 mph - N/A Snow Light Snow
10:00 PM -0.4 °F -18.4 °F -5.8 °F 78% 30.08 in 15.0 mi NNE 12.7 mph - N/A Snow Light Snow
11:00 PM -0.4 °F -16.7 °F -5.8 °F 78% 30.09 in 15.0 mi NNE 10.4 mph - N/A Snow Light Snow